Torna al catalogo

GSLV R/B

AttivoSSO
NORAD 65054·ROCKET BODY·🇮🇳 India

Lanciato Jul 30, 2025 da Satish Dhawan Space Centre

Loading…

Prossimi Passaggi (prossime 24 ore)

TLE

AggiornatoSource: Space-Track

Epoca: Sep 14, 2026, 07:06 UTC

1 65054U 25163B   26257.29646490  .00000194  00000-0  64375-4 0  9992
2 65054  98.4329  88.0980 0012703 135.0035 225.2189 14.47886075 59430

Traccia GSLV R/B in tempo reale con AllMySat

Download on the App Store